Tracking 25709 objects as of 24-May-2022
HD Live streaming from Space Station
objects crossing your sky now

SPACEBEE-26

Track SPACEBEE-26 now!
10-day predictions


NORAD ID: 46956
Int'l Code: 2020-085AD
Perigee: 450.0 km
Apogee: 466.8 km
Inclination: 97.4 °
Period: 93.6 minutes
Semi major axis: 6829 km
RCS: Unknown
Launch date: November 20, 2020
Source: United States (US)
Launch site: Rocket Lab Launch Complex (RLLC)
aabbcc
Your satellite tracking list
Your tracking list is empty




NASA's NSSDC Master Catalog

Two Line Element Set (TLE):
1 46956U 20085AD  22143.36435942  .00097197  00000-0  25456-2 0  9990
2 46956  97.4266 282.4689 0012240 187.1825 172.9268 15.38257161 83629
Source of the keplerian elements: AFSPC